Wind_Speed
25 24 22 20 17 18 16 15 12 12 13 14 14 13 13 16 19 23 23 24 28 31 34 36 38 40 40 40 43 46 47 49 52 53 54 55 56 56 57 57 56 56 56 57 58 58 59 58 58
23 22 22 18 17 17 16 15 14 12 10 9 12 15 16 19 19 19 21 24 25 28 28 31 32 36 39 40 41 42 44 45 46 48 50 51 53 54 58 60 59 57 57 56 56 54 54 54 56
20 18 15 13 14 12 11 8 8 7 9 11 13 16 16 15 18 22 23 25 26 28 28 29 31 33 33 35 36 37 37 38 36 36 36 36 39 42 45 47 51 54 55 55 57 58 56 55 55
17 15 14 13 12 11 9 7 4 6 8 7 10 12 14 18 20 20 18 21 23 24 21 23 25 27 30 29 32 31 28 25 22 22 23 26 27 26 23 26 29 33 40 47 52 53 53 56 56
13 13 12 14 14 13 11 10 8 9 7 6 8 9 11 13 16 17 20 21 20 16 18 21 24 28 27 29 28 26 18 18 19 16 16 15 14 16 13 13 11 13 15 20 27 33 41 46 48
10 14 14 16 16 13 12 10 10 7 4 3 3 5 8 14 14 15 16 14 13 13 18 22 23 25 26 27 26 17 20 22 27 30 28 24 18 11 8 8 8 11 11 14 16 17 18 20 26
6 7 10 16 15 13 12 11 15 9 4 3 4 5 8 12 14 12 8 9 8 14 21 23 25 24 22 26 24 26 29 28 29 32 34 29 23 21 19 17 16 15 15 15 17 18 18 19 20
10 8 8 13 15 13 15 14 12 8 5 5 2 5 9 12 8 10 10 10 12 14 18 23 24 22 19 20 18 21 27 34 29 27 30 36 32 22 24 20 19 16 17 25 22 18 16 15 16
12 10 9 11 13 13 16 12 11 8 5 4 7 8 10 10 9 10 14 11 11 15 19 22 21 22 16 17 16 16 18 25 24 29 25 31 36 33 30 27 29 28 34 32 35 37 27 15 13
14 13 13 12 11 11 12 12 8 6 4 6 7 8 10 10 12 12 14 13 13 17 21 24 21 19 17 16 17 15 15 22 22 26 20 24 26 30 33 32 35 34 40 31 30 31 31 30 24
18 18 16 16 14 12 13 13 10 8 5 9 13 14 11 11 17 17 17 17 17 16 20 25 23 21 19 18 17 15 15 18 19 21 21 20 23 23 26 26 31 31 33 36 41 36 31 26 25
19 20 21 20 21 19 17 18 19 16 15 20 22 16 16 18 16 16 16 19 17 20 19 25 24 25 21 20 17 17 13 14 17 19 18 13 17 17 20 23 25 26 26 30 41 41 39 21 26
21 21 24 22 22 24 24 18 19 21 19 17 18 21 21 18 18 18 16 16 20 19 17 21 22 25 24 21 15 16 15 19 19 18 16 17 15 19 20 25 24 27 33 38 42 45 37 36 29
26 24 25 25 23 26 25 23 23 25 25 19 18 19 22 22 23 25 21 19 21 17 16 18 22 23 24 18 17 19 21 18 15 13 15 19 20 20 26 26 23 29 34 39 40 41 38 37 26
27 25 27 27 27 27 27 26 22 21 22 20 19 20 23 25 22 25 18 17 24 12 13 15 21 25 26 23 23 25 27 22 16 15 11 17 21 19 24 30 27 20 26 33 36 36 34 35 36
26 26 26 26 27 30 27 26 24 24 25 22 19 19 21 20 22 19 16 17 19 12 14 14 18 23 26 25 26 28 27 26 18 16 16 30 20 21 24 29 17 17 19 30 37 37 35 35 37
33 31 30 27 23 25 25 26 26 26 26 22 21 20 20 23 20 17 17 20 11 13 14 15 16 21 25 25 29 28 26 24 15 17 22 25 20 19 23 25 27 22 22 21 30 36 39 40 38
36 32 34 31 27 25 24 26 25 25 26 23 23 23 22 22 21 18 14 19 15 14 16 16 17 21 23 28 27 29 31 28 21 25 28 26 37 29 27 28 29 25 30 24 34 35 38 41 43
41 39 33 33 31 30 26 28 27 27 25 24 24 23 22 18 15 19 18 19 17 17 15 17 20 22 23 27 27 31 28 31 27 24 28 34 30 28 37 35 31 24 28 31 38 36 39 39 46
41 42 38 38 33 36 30 32 27 29 26 26 26 27 22 21 20 20 20 21 20 18 16 18 22 23 24 27 28 30 33 32 33 28 29 31 27 29 40 37 37 27 33 36 31 35 47 38 45
44 43 42 42 36 34 37 35 32 32 33 32 23 25 21 23 26 19 23 22 19 22 24 24 24 23 26 26 29 32 34 32 37 37 37 33 31 31 37 39 42 39 43 37 34 35 43 36 45
46 45 46 43 37 35 34 31 32 32 36 36 27 25 26 24 25 26 26 20 24 22 27 27 29 31 30 29 31 33 37 35 36 38 40 31 32 39 43 43 48 46 47 39 38 37 38 43 50
48 46 43 43 43 36 39 36 35 37 37 39 35 28 30 26 29 27 23 22 24 26 27 26 28 31 34 32 33 39 39 39 39 36 41 47 36 45 46 51 48 51 47 51 47 43 40 47 52
55 53 50 46 42 36 41 40 38 39 41 42 39 34 33 33 32 31 24 25 25 30 26 33 31 34 35 36 37 42 41 41 40 38 44 49 44 52 55 59 53 53 55 55 55 55 47 52 56
57 59 56 53 46 39 42 35 36 38 41 43 42 40 39 38 39 38 25 22 27 31 30 36 38 43 40 39 41 43 46 47 44 44 46 50 44 51 61 60 57 55 57 57 56 63 58 60 66
53 58 58 54 50 49 50 44 39 42 41 41 45 46 44 44 44 39 36 31 28 31 39 40 45 50 46 46 42 46 50 50 46 49 53 52 54 58 63 63 64 63 65 62 60 64 63 65 73
52 54 58 55 52 51 49 47 45 45 45 44 43 44 45 45 43 42 41 42 37 32 36 48 49 46 38 44 41 50 50 48 51 56 59 59 63 66 63 65 68 69 72 66 67 69 68 76 76
57 55 55 57 52 51 51 50 49 49 50 50 50 46 48 48 47 47 45 44 40 38 39 45 33 31 60 59 52 41 45 59 57 56 63 64 68 67 71 70 71 75 75 67 68 72 78 81 81
60 58 56 56 55 52 51 51 53 54 55 53 53 50 49 52 52 50 50 49 45 44 40 36 22 37 42 47 44 56 58 65 69 68 69 73 72 74 74 74 78 75 75 70 71 79 78 81 87
60 61 59 56 53 50 51 51 58 57 57 53 52 51 52 53 55 55 56 55 52 49 38 33 32 37 40 53 64 65 76 76 84 82 83 84 81 78 80 81 85 78 78 75 80 84 84 84 90
Wind_Direction
221 225 225 228 231 238 243 245 253 251 250 243 257 273 278 301 310 316 313 298 288 287 288 285 285 287 290 294 295 293 291 290 288 287 285 282 279 275 272 270 268 267 266 264 263 261 261 259 257
223 222 223 227 237 244 249 251 247 242 240 245 251 263 295 309 321 311 303 299 296 301 299 301 304 302 301 298 298 299 296 294 289 284 278 276 273 272 271 268 265 266 265 265 265 263 263 264 262
220 225 221 214 222 231 240 236 207 204 224 246 272 291 297 304 308 303 297 298 302 302 308 310 306 306 303 305 308 310 310 308 305 298 291 284 279 276 272 270 267 267 266 263 265 263 262 263 264
215 216 216 203 216 219 210 193 173 243 271 295 287 290 304 310 305 301 302 308 309 313 315 316 312 315 316 319 321 325 327 324 327 318 307 292 286 284 277 279 279 274 269 263 262 261 261 259 261
213 210 200 209 198 173 177 179 212 232 248 275 283 303 316 312 299 305 313 311 314 326 326 322 326 333 336 339 338 337 345 2 358 355 355 347 310 278 282 290 298 305 304 292 278 273 267 264 265
198 212 198 196 196 182 181 199 205 212 203 211 283 317 329 316 306 306 312 317 321 339 350 347 344 340 343 347 358 11 29 28 24 31 28 23 19 359 319 307 307 300 302 299 296 297 289 280 273
181 171 175 197 193 189 203 212 236 219 219 232 277 326 313 310 311 312 323 325 330 341 351 352 347 345 350 353 17 37 35 32 34 35 32 26 22 22 17 13 13 3 353 335 317 302 296 288 277
211 217 188 181 193 206 223 223 230 224 262 235 263 303 291 309 316 322 325 323 318 332 339 352 355 352 350 351 16 28 38 35 38 35 37 37 37 38 37 39 40 41 35 33 14 339 305 295 297
214 209 218 216 210 208 198 192 214 265 298 253 245 291 297 312 308 324 339 336 320 327 338 347 349 347 345 338 351 1 1 9 20 26 30 35 37 43 47 41 43 45 45 50 43 42 31 350 316
221 212 216 213 214 210 211 204 202 254 292 286 300 292 306 317 312 313 322 336 329 325 339 340 343 342 339 330 336 347 356 356 7 18 26 25 30 40 43 43 44 46 37 33 26 31 34 37 22
218 227 226 222 228 230 229 231 221 231 262 301 313 284 295 340 335 308 308 308 330 333 338 337 336 340 335 328 326 331 338 5 16 22 24 31 30 44 29 24 26 31 28 33 21 25 22 23 28
227 231 235 237 239 242 244 248 248 239 256 288 291 283 278 295 321 330 313 309 316 332 329 338 335 340 337 329 326 321 322 4 6 16 20 12 29 31 31 18 10 1 358 1 5 14 24 19 16
228 232 241 238 248 255 253 252 259 259 266 272 280 278 269 277 298 322 307 312 317 329 329 332 332 341 344 338 328 335 339 339 345 349 7 9 6 10 7 3 0 358 354 355 360 4 10 22 23
228 232 240 243 246 256 262 265 272 271 267 263 278 273 275 271 284 310 310 297 313 322 325 325 329 342 346 350 342 334 329 332 333 339 341 357 349 353 352 350 350 348 344 346 351 1 3 16 13
239 240 241 239 243 247 254 259 265 266 260 261 268 276 281 279 281 308 303 296 311 307 316 319 330 338 347 356 345 341 336 321 320 329 343 344 340 338 342 334 326 338 344 344 345 354 353 3 1
236 240 244 244 243 245 251 258 259 263 261 275 270 278 281 278 293 310 299 304 309 301 313 312 334 335 343 343 349 339 341 326 309 316 322 339 334 324 331 333 318 336 338 335 338 344 344 341 343
238 242 249 244 246 249 247 254 256 258 263 275 279 279 277 286 298 295 298 307 287 291 305 300 321 336 342 341 348 350 344 333 304 326 331 334 331 335 336 334 323 307 321 318 332 332 332 332 335
241 242 244 243 243 245 253 255 256 261 264 268 268 275 285 296 300 284 289 311 279 286 300 291 320 332 333 339 354 350 351 344 321 318 329 337 337 330 329 340 330 304 310 314 331 328 325 324 321
243 243 240 242 243 247 254 254 260 263 263 262 273 277 283 294 296 296 292 310 287 283 287 292 323 319 325 333 347 341 346 4 357 336 333 333 342 351 340 327 341 317 311 314 298 315 314 320 314
239 241 242 240 237 244 247 253 252 262 253 258 268 274 272 282 289 298 290 310 288 292 281 295 312 316 310 321 332 335 333 337 339 355 351 340 328 339 342 340 340 332 319 327 306 297 305 305 306
238 236 238 238 237 243 246 251 256 263 254 255 266 264 260 279 278 290 284 324 308 286 291 290 300 305 307 308 323 327 328 328 334 338 339 344 342 332 340 341 346 332 335 334 321 297 303 300 302
238 241 240 241 236 237 244 256 253 257 257 256 264 273 259 267 280 278 283 310 323 300 290 283 291 298 306 300 313 317 323 318 328 332 335 327 326 330 332 334 332 335 333 334 320 325 308 304 307
238 240 241 239 237 235 242 247 255 255 260 260 261 274 264 264 282 272 276 296 310 308 300 293 306 300 294 293 306 311 314 312 313 324 328 326 323 332 328 331 330 327 324 328 325 319 316 309 308
238 240 240 241 239 236 245 240 254 260 263 267 267 267 269 269 275 267 269 297 309 303 294 310 304 298 292 292 297 307 307 308 306 313 318 321 308 318 325 326 322 324 327 322 318 315 309 311 311
241 239 241 242 247 244 247 246 250 261 263 265 267 270 269 269 273 277 267 283 290 300 308 304 302 306 292 284 289 299 306 307 303 304 313 316 313 310 319 322 316 317 319 316 311 315 308 311 312
244 243 243 245 248 245 248 249 250 258 263 266 269 269 270 272 268 274 274 268 276 291 292 296 303 310 296 293 288 294 300 303 300 301 309 313 313 311 316 316 312 310 315 314 308 311 307 307 315
244 245 245 244 248 246 248 254 254 255 258 262 265 268 266 268 268 271 274 283 278 275 289 297 298 313 302 294 292 299 300 299 302 306 307 308 308 311 311 312 309 306 308 312 307 309 308 311 316
242 243 243 245 246 245 245 251 254 255 258 262 263 266 267 262 265 269 274 281 275 281 295 305 323 264 309 297 294 288 294 302 302 303 302 304 304 305 309 310 311 306 302 306 308 307 306 313 314
243 244 244 245 246 245 244 247 255 259 261 262 259 257 261 263 263 265 273 274 278 283 287 302 310 245 252 260 267 281 288 294 299 300 299 300 299 303 304 305 308 303 299 302 307 310 311 313 314
248 248 248 247 248 248 248 249 252 254 257 259 258 258 257 260 262 263 265 269 277 277 271 278 269 245 241 247 261 276 286 288 291 298 299 296 296 299 301 306 306 304 298 302 306 309 312 313 313
Height
10952 10955 10958 10962 10965 10964 10965 10968 10969 10969 10971 10972 10973 10972 10971 10970 10969 10968 10967 10965 10963 10960 10958 10956 10954 10952 10949 10946 10942 10938 10934 10929 10925 10920 10917 10913 10910 10906 10904 10902 10901 10900 10901 10902 10903 10903 10904 10906 10907
10949 10954 10957 10961 10963 10962 10964 10965 10966 10967 10968 10969 10969 10968 10968 10967 10966 10966 10964 10962 10960 10958 10955 10952 10950 10947 10944 10940 10935 10930 10925 10920 10915 10910 10905 10901 10897 10894 10892 10890 10888 10888 10889 10891 10890 10892 10893 10894 10895
10948 10952 10957 10960 10960 10961 10961 10963 10963 10963 10964 10966 10967 10967 10966 10965 10965 10964 10961 10959 10956 10954 10952 10949 10946 10943 10938 10933 10928 10922 10916 10911 10905 10900 10895 10891 10887 10884 10882 10879 10878 10879 10879 10878 10878 10881 10883 10884 10884
10947 10951 10955 10958 10957 10959 10961 10962 10962 10961 10962 10964 10963 10963 10963 10962 10961 10960 10958 10956 10954 10952 10950 10947 10943 10939 10934 10928 10924 10918 10912 10905 10899 10894 10889 10884 10879 10875 10872 10870 10870 10869 10868 10867 10866 10868 10869 10871 10871
10946 10949 10954 10955 10955 10958 10960 10961 10962 10961 10961 10962 10961 10961 10961 10961 10960 10958 10956 10953 10952 10950 10947 10943 10939 10934 10929 10924 10919 10913 10906 10901 10895 10890 10886 10880 10875 10871 10868 10866 10866 10864 10862 10861 10859 10858 10859 10859 10860
10945 10947 10951 10952 10953 10956 10958 10959 10960 10959 10959 10959 10959 10959 10959 10959 10958 10956 10954 10952 10950 10948 10944 10940 10936 10931 10926 10922 10917 10910 10904 10899 10894 10888 10884 10879 10874 10869 10866 10864 10862 10859 10858 10856 10855 10855 10853 10852 10850
10944 10945 10948 10949 10951 10954 10955 10957 10957 10957 10956 10956 10957 10957 10958 10957 10955 10953 10951 10949 10947 10945 10942 10937 10933 10928 10925 10921 10917 10911 10904 10899 10894 10889 10885 10878 10873 10869 10864 10862 10860 10857 10855 10852 10849 10847 10846 10845 10843
10943 10943 10946 10947 10950 10953 10954 10956 10956 10955 10954 10954 10955 10955 10955 10955 10953 10951 10949 10947 10944 10942 10939 10935 10930 10926 10923 10920 10918 10911 10907 10902 10896 10892 10888 10883 10876 10870 10866 10863 10859 10858 10856 10854 10848 10844 10841 10839 10838
10942 10943 10943 10944 10947 10950 10950 10952 10955 10953 10952 10953 10953 10953 10953 10951 10950 10948 10946 10944 10942 10940 10937 10932 10928 10925 10921 10917 10914 10910 10905 10901 10897 10893 10888 10884 10878 10872 10867 10865 10861 10858 10856 10853 10848 10845 10838 10835 10833
10940 10942 10943 10944 10945 10947 10949 10951 10953 10953 10951 10951 10951 10951 10950 10948 10946 10945 10944 10942 10940 10938 10934 10930 10927 10923 10920 10915 10911 10907 10904 10900 10895 10892 10888 10883 10879 10874 10870 10866 10862 10858 10855 10852 10850 10847 10842 10837 10832
10938 10939 10941 10943 10944 10945 10947 10949 10951 10951 10949 10949 10948 10949 10948 10946 10945 10943 10942 10941 10938 10935 10933 10929 10925 10921 10916 10912 10908 10904 10902 10898 10894 10890 10887 10883 10879 10875 10870 10868 10864 10860 10856 10854 10851 10846 10841 10838 10833
10935 10936 10938 10940 10942 10943 10945 10947 10947 10948 10948 10947 10946 10946 10945 10944 10942 10940 10940 10938 10936 10933 10930 10927 10922 10918 10914 10909 10906 10903 10898 10896 10892 10888 10885 10881 10878 10875 10870 10866 10863 10860 10856 10853 10849 10846 10842 10836 10832
10932 10933 10933 10937 10938 10938 10941 10944 10942 10944 10945 10945 10944 10942 10942 10942 10940 10939 10937 10935 10932 10929 10927 10924 10920 10916 10910 10904 10902 10899 10897 10893 10890 10886 10882 10879 10875 10872 10868 10864 10860 10856 10852 10848 10845 10841 10839 10835 10831
10929 10930 10930 10932 10934 10934 10936 10938 10938 10938 10939 10942 10942 10940 10938 10938 10937 10936 10934 10931 10929 10926 10924 10921 10918 10913 10908 10902 10898 10895 10892 10888 10885 10882 10878 10875 10872 10869 10866 10863 10857 10852 10847 10845 10841 10838 10837 10832 10829
10925 10926 10927 10929 10930 10930 10932 10932 10933 10934 10934 10936 10937 10937 10935 10933 10933 10933 10930 10927 10925 10923 10920 10918 10915 10911 10907 10902 10897 10892 10888 10884 10880 10877 10873 10870 10868 10866 10862 10860 10855 10849 10845 10841 10838 10836 10834 10830 10828
10920 10922 10922 10924 10924 10925 10927 10927 10928 10929 10929 10930 10931 10933 10932 10930 10929 10927 10925 10923 10920 10918 10916 10914 10912 10909 10905 10900 10896 10892 10885 10879 10876 10873 10870 10867 10865 10862 10859 10856 10851 10846 10842 10838 10835 10832 10829 10828 10825
10915 10916 10917 10919 10919 10920 10923 10922 10923 10924 10924 10925 10925 10926 10926 10925 10925 10923 10921 10919 10917 10916 10913 10911 10908 10905 10903 10899 10893 10890 10885 10879 10874 10871 10869 10866 10862 10860 10857 10853 10849 10842 10838 10834 10830 10825 10823 10821 10819
10909 10911 10912 10914 10914 10915 10916 10916 10917 10918 10918 10919 10920 10920 10921 10920 10918 10918 10917 10915 10913 10912 10911 10908 10906 10903 10899 10896 10889 10885 10882 10876 10873 10870 10866 10863 10860 10855 10852 10848 10845 10841 10836 10830 10826 10821 10817 10813 10810
10902 10905 10906 10908 10911 10911 10909 10910 10911 10912 10913 10914 10914 10914 10915 10915 10913 10912 10911 10910 10908 10907 10906 10904 10901 10898 10895 10890 10885 10881 10876 10873 10869 10866 10862 10859 10855 10851 10847 10843 10839 10834 10832 10827 10821 10817 10811 10808 10803
10893 10896 10899 10903 10906 10906 10906 10904 10905 10906 10908 10909 10909 10909 10910 10911 10910 10909 10907 10904 10902 10902 10900 10897 10893 10891 10887 10883 10879 10874 10870 10867 10864 10861 10858 10853 10849 10845 10842 10837 10833 10829 10827 10821 10816 10811 10805 10801 10797
10884 10885 10888 10895 10900 10900 10900 10898 10899 10899 10901 10902 10904 10903 10903 10905 10905 10904 10903 10901 10899 10897 10893 10890 10887 10884 10881 10876 10871 10867 10862 10859 10857 10854 10851 10847 10843 10841 10836 10832 10827 10823 10817 10812 10809 10802 10798 10794 10788
10875 10875 10880 10887 10892 10895 10895 10892 10893 10893 10892 10895 10898 10897 10897 10899 10899 10898 10898 10896 10895 10891 10886 10884 10881 10878 10874 10870 10865 10862 10857 10853 10850 10848 10844 10841 10838 10834 10830 10826 10820 10814 10810 10803 10799 10793 10787 10784 10780
10864 10868 10872 10876 10882 10886 10889 10888 10885 10886 10885 10887 10891 10892 10892 10893 10893 10891 10890 10890 10888 10885 10882 10878 10874 10871 10867 10864 10859 10856 10851 10847 10844 10841 10840 10838 10831 10826 10821 10817 10811 10805 10799 10794 10789 10784 10779 10773 10770
10854 10858 10862 10866 10872 10880 10877 10882 10880 10878 10879 10879 10882 10885 10886 10886 10886 10884 10882 10882 10882 10878 10876 10872 10866 10864 10860 10856 10851 10849 10845 10841 10837 10834 10832 10829 10823 10817 10812 10808 10802 10796 10790 10785 10780 10775 10769 10765 10759
10844 10848 10854 10860 10866 10871 10869 10875 10875 10870 10871 10871 10872 10875 10878 10878 10878 10877 10875 10876 10875 10872 10869 10863 10856 10853 10850 10846 10843 10841 10838 10835 10831 10828 10823 10820 10816 10810 10804 10799 10792 10787 10782 10776 10770 10764 10758 10751 10744
10833 10838 10844 10850 10855 10859 10862 10868 10868 10863 10863 10864 10863 10865 10867 10868 10867 10869 10867 10868 10866 10865 10862 10855 10849 10845 10844 10841 10834 10832 10830 10827 10823 10819 10814 10809 10805 10800 10794 10789 10782 10776 10770 10763 10757 10749 10740 10735 10727
10822 10827 10832 10839 10845 10849 10854 10856 10857 10856 10853 10855 10856 10856 10856 10857 10856 10859 10861 10860 10859 10858 10856 10850 10843 10833 10837 10835 10829 10821 10821 10818 10813 10808 10801 10793 10791 10789 10784 10778 10773 10765 10758 10750 10743 10735 10728 10720 10709
10809 10814 10820 10826 10833 10838 10843 10844 10845 10843 10844 10846 10848 10848 10847 10846 10846 10848 10850 10852 10852 10851 10849 10843 10831 10825 10833 10828 10817 10809 10808 10806 10803 10799 10792 10785 10780 10776 10771 10765 10760 10754 10746 10737 10729 10721 10712 10702 10692
10797 10801 10807 10813 10820 10825 10831 10834 10831 10832 10832 10834 10836 10839 10836 10835 10837 10837 10838 10840 10843 10845 10843 10843 10839 10848 10850 10800 10798 10797 10798 10795 10793 10789 10782 10776 10770 10766 10760 10754 10748 10741 10731 10722 10714 10706 10697 10685 10675
10786 10790 10796 10803 10811 10816 10820 10824 10817 10817 10817 10821 10824 10826 10826 10827 10827 10828 10828 10829 10832 10835 10836 10840 10841 10837 10824 10799 10789 10791 10787 10784 10781 10778 10771 10765 10760 10754 10748 10741 10734 10725 10715 10706 10698 10688 10678 10667 10655